Miscellaneous Local Product
Issued by NWS North Platte, NE

Home | Current Version | Previous Version | Graphics & Text | Print | Product List | Glossary On
Versions: 1 2 3 4 5 6 7 8 9 10 11 12 13 14 15 16 17 18 19 20 21 22 23 24 25 26 27 28 29 30 31 32 33 34 35 36 37 38 39 40 41 42 43 44 45 46 47 48 49 50
000
AXUS43 KLBF 151210
MISLBF


WESTERN AND NORTH CENTRAL NEBRASKA HOURLY WEATHER ROUNDUP
NATIONAL WEATHER SERVICE NORTH PLATTE NE
600 AM CST MON JAN 15 2018

NOTE: "FAIR" INDICATES FEW OR NO CLOUDS BELOW 12,000 FEET WITH NO
SIGNIFICANT WEATHER AND/OR OBSTRUCTIONS TO VISIBILITY.

NOTE: STATIONS NOT REPORTING VARIABLES SUCH AS SKY/WEATHER OR
PRESSURE ARE PROVIDED BY RAWS AND APRS NETWORKS AND ARE NOT UNDER
NATIONAL WEATHER SERVICE QUALITY CONTROL.

...OBSERVATIONS IN AND NEAR THE EASTERN PANHANDLE OF NEBRASKA...

CITY           SKY/WX    TMP DP  RH WIND       PRES   REMARKS
PINE RIDGE     CLEAR      0  -8  69 N8        30.51R WCI -14
GORDON         FAIR      -2  -9  71 N14       30.46R WCI -21
CHADRON        PTCLDY    -3  -9  75 CALM      30.54R
ALLIANCE       PTCLDY     3  -7  63 N13       30.42R WCI -14
SIDNEY         CLOUDY    13   6  74 N13       30.38R WCI  -2
CRESCENT LAKE    N/A      3  -9  56 N10G23      N/A  WCI -12
$$

...OBSERVATIONS IN NORTHERN NEBRASKA AND FAR SOUTHERN SOUTH DAKOTA...

CITY           SKY/WX    TMP DP  RH WIND       PRES   REMARKS
WINNER         MOCLDY     0  -7  72 NW23G30   30.55R WCI -23
VALENTINE      MOCLDY    -1  -8  72 NW20G26   30.52R WCI -23
AINSWORTH      CLOUDY    -1  -5  83 NW12      30.50R WCI -19
O`NEILL        MOCLDY    -1  -5  82 NW15G21   30.50R WCI -20
THEDFORD       CLEAR      1  -5  76 N16G22    30.47R WCI -19
BROKEN BOW     CLEAR      2  -5  72 N30G36    30.44R WCI -23
ORD            PTCLDY     2  -5  72 NW21G29   30.47R WCI -20
ALBION         CLEAR      3  -4  70 N20G30    30.45R WCI -18
VALENTINE NWR    N/A     -2  -9  72 NW16G26     N/A  WCI -22
HALSEY           N/A      0  -6  73 NW8G21      N/A  WCI -14
BUTTE            N/A     -2  -6  80 NW18G26     N/A  WCI -24
CHAMBERS         N/A     -2 -13  60 W3G12       N/A
EWING            N/A      0  -5  79 N15G22      N/A  WCI -19
$$

...OBSERVATIONS IN SOUTHWEST NEBRASKA AND FAR NORTHEAST COLORADO...

CITY           SKY/WX    TMP DP  RH WIND       PRES   REMARKS
WRAY           CLOUDY    19   5  53 N15G21    30.41R WCI   5
HOLYOKE        PTSUNNY   19   9  63 N13       30.41R WCI   7
IMPERIAL       CLOUDY    16   0  49 N21G26    30.44R WCI  -1
OGALLALA       MOCLDY    12  -5  45 N18G25    30.45R WCI  -5
NORTH PLATTE   PTCLDY     5  -4  66 N13       30.47R WCI -12
MCCOOK         CLOUDY    18   8  65 N18       30.45R WCI   2
LEXINGTON      PTCLDY     9   2  75 N13       30.46R WCI  -7
STAPLETON        N/A      0  -6  76 CALM        N/A
GOTHENBURG       N/A      6  -1  73 NW13        N/A  WCI -10
CALLAWAY         N/A      3  -2  81 N20         N/A  WCI -18
$$

...OBSERVATIONS IN CENTRAL LINCOLN COUNTY AREA...

CITY           SKY/WX    TMP DP  RH WIND       PRES   REMARKS
N.P. AIRPORT   PTCLDY     5  -4  66 N13       30.47R WCI -12
N.P. DOWNTOWN    N/A      5  -2  74 NW3         N/A
N.P. HILLCREST   N/A      4  -2  74 NW10        N/A  WCI -11
$$

...SOME OBSERVATIONS FROM AROUND THE REGION...

CITY           SKY/WX    TMP DP  RH WIND       PRES   REMARKS
DENVER         FRZ DRZL  24  21  88 E12       30.31R FOG     WCI  13
BERTHOUD PASS  FAIR      10   0  61 NW35      30.17S WCI -13
GRAND JUNCTION CLEAR     27  23  85 E8        30.27S WCI  19
LARAMIE        CLOUDY    22  21  96 N14       30.22R WCI   9
CHEYENNE       LGT SNOW  16  14  92 N16G28    30.29R FOG     WCI   1
CASPER         CLOUDY    14   9  80 NE8       30.43R WCI   3
BISMARCK       CLEAR    -10 -18  67 NW20G25   30.68R WCI -35
RAPID CITY     MIX PCPN  -1  -8  72 N33G46    30.50R VSB 1   WCI -28
PIERRE         PTCLDY    -5 -11  75 NW13      30.61R WCI -24
SIOUX FALLS    CLEAR     -3 -10  72 NW17G26   30.44R WCI -24
OMAHA          PTCLDY     5  -4  66 NW20G29   30.44R WCI -15
GRAND ISLAND   CLEAR      4  -3  73 NW22G30   30.47R WCI -18
SCOTTSBLUFF    CLOUDY    16   2  54 N15       30.44R WCI   1
KANSAS CITY    CLOUDY    14   4  64 N15G30    30.39R WCI  -1
HILL CITY      CLOUDY    19  13  77 N16       30.44R WCI   4
WICHITA        LGT SNOW  33  32  96 N16       30.33R FOG     WCI  23
DODGE CITY     CLOUDY    27  22  81 NE26G45   30.33R WCI  12
OKLAHOMA CITY  PTCLDY    29  20  69 N16       30.25R WCI  17
DALLAS         CLEAR     40  35  83 S8        30.26S WCI  34
AMARILLO       CLOUDY    38  20  48 W16       30.13R WCI  29
$$




USA.gov is the U.S. government's official web portal to all federal, state and local government web resources and services.